Home   Weather   Moreno Valley   Past weeks

Flag for USA Past Weather in Moreno Valley, California, USA — Yesterday and Last 2 Weeks

Now
64 °F

Clear.


Feels Like: 64 °F
Forecast: 62 / 97 °F
Wind: 3 mph from Northwest

Location: Riverside / March Air Force Base

Current Time: Jul 22, 2017 at 3:57:51 am

Latest Report: Jul 22, 2017 at 2:58 am


Visibility: 10 mi

Pressure: 29.89 "Hg

Humidity: 83%

Dew Point: 58 °F

Location of Moreno ValleyLocation

Past Weather in Moreno Valley — Graph

°F

Moreno Valley Temperature Yesterday

Maximum temperature yesterday: 94 °F (at 2:58 pm)
Minimum temperature yesterday: 59 °F (at 5:58 am)
Average temperature yesterday: 76 °F

High & Low Weather Summary for the Past Weeks

 TemperatureHumidityPressure
High108 °F (Jul 8, 2:58 pm)96% (Jul 18, 4:58 am)30.03 "Hg (Jul 18, 4:58 am)
Low59 °F (Jul 21, 5:58 am)14% (Jul 8, 2:58 pm)29.79 "Hg (Jul 8, 5:58 pm)
Average81 °F47%29.90 "Hg
* Reported Jul 7 1:58 am — Jul 22 1:58 am, Moreno Valley. Weather by CustomWeather, © 2017

Note: Actual official high and low records may vary slightly from our data, if they occured in-between our weather recording intervals... More about our weather records

Advertising

Moreno Valley Weather History for the Previous 24 Hours

Scroll right to see more
 ConditionsComfort  
Time TempWeatherWind HumidityBarometerVisibility
1:58 am
Sat, Jul 22
64 °FClear.No wind75%29.90 "Hg10 mi
12:58 am66 °FClear.No wind75%29.89 "Hg10 mi
11:58 pm
Fri, Jul 21
68 °FClear.No wind68%29.90 "Hg10 mi
10:58 pm69 °FClear.3 mph64%29.90 "Hg10 mi
9:58 pm72 °FClear.3 mph59%29.90 "Hg10 mi
8:58 pm75 °FClear.6 mph52%29.88 "Hg10 mi
7:58 pm80 °FClear.7 mph35%29.86 "Hg10 mi
6:58 pm85 °FSunny.13 mph31%29.85 "Hg10 mi
5:58 pm89 °FSunny.14 mph28%29.85 "Hg10 mi
4:58 pm92 °FSunny.14 mph29%29.85 "Hg10 mi
3:58 pm94 °FSunny.13 mph27%29.85 "Hg10 mi
2:58 pm94 °FSunny.8 mph24%29.87 "Hg10 mi
1:58 pm93 °FSunny.8 mph19%29.90 "Hg10 mi
12:58 pm91 °FSunny.No wind25%29.92 "Hg10 mi
11:58 am88 °FSunny.6 mph25%29.94 "Hg10 mi
10:58 am83 °FSunny.No wind34%29.95 "Hg10 mi
9:58 am79 °FSunny.No wind46%29.95 "Hg10 mi
8:58 am73 °FSunny.No wind60%29.95 "Hg10 mi
7:58 am69 °FSunny.No wind72%29.94 "Hg10 mi
6:58 am65 °FSunny.No wind75%29.94 "Hg10 mi
5:58 am59 °FSunny.No wind87%29.93 "Hg9 mi
4:58 am61 °FClear.No wind81%29.92 "Hg10 mi
3:58 am60 °FClear.No wind86%29.91 "Hg10 mi
Weather by CustomWeather, © 2017

See weather overviewHow to use our weather pages